This is the latest recevied weather packets stored in our database for station/object DL8GAK-13. If no packets are shown the sender has not sent any weather packets the latest 10 day(s).
| Time | Temp. | Humidity | Pressure | Rain* | Wind** | Luminosity | Snow |
|---|---|---|---|---|---|---|---|
| 1777962989 | 13.89° C | 67% | 1017.2 hPa | - | - | - | - |
| 1777962388 | 13.89° C | 67% | 1017.2 hPa | - | - | - | - |
| 1777961787 | 13.33° C | 67% | 1017.3 hPa | - | - | - | - |
| 1777961186 | 13.33° C | 66% | 1017.4 hPa | - | - | - | - |
| 1777960585 | 12.78° C | 66% | 1017.4 hPa | - | - | - | - |
| 1777959984 | 12.78° C | 65% | 1017.3 hPa | - | - | - | - |
| 1777959383 | 12.78° C | 65% | 1017.3 hPa | - | - | - | - |
| 1777958783 | 12.22° C | 65% | 1017.3 hPa | - | - | - | - |
| 1777958182 | 12.22° C | 65% | 1017.2 hPa | - | - | - | - |
| 1777957582 | 11.67° C | 64% | 1017.4 hPa | - | - | - | - |
| 1777956981 | 11.67° C | 64% | 1017.4 hPa | - | - | - | - |
| 1777956381 | 11.67° C | 63% | 1017.5 hPa | - | - | - | - |
| 1777955781 | 11.67° C | 63% | 1017.5 hPa | - | - | - | - |
| 1777954580 | 11.67° C | 63% | 1017.6 hPa | - | - | - | - |
| 1777953979 | 11.67° C | 64% | 1017.6 hPa | - | - | - | - |
| 1777953378 | 11.67° C | 64% | 1017.6 hPa | - | - | - | - |
| 1777952777 | 11.67° C | 64% | 1017.7 hPa | - | - | - | - |
| 1777952176 | 11.67° C | 63% | 1017.7 hPa | - | - | - | - |
| 1777951575 | 11.67° C | 63% | 1017.8 hPa | - | - | - | - |
| 1777950974 | 11.67° C | 63% | 1017.8 hPa | - | - | - | - |
| 1777950373 | 12.22° C | 62% | 1017.9 hPa | - | - | - | - |
| 1777949772 | 12.22° C | 62% | 1017.9 hPa | - | - | - | - |
| 1777949171 | 12.22° C | 62% | 1018 hPa | - | - | - | - |
| 1777948570 | 12.22° C | 62% | 1018.1 hPa | - | - | - | - |
| 1777947969 | 12.78° C | 62% | 1018.1 hPa | - | - | - | - |
* Rain since midnight (hover to see other rain measurements)
** Current wind speed in m/s (hover to see current wind gust speed)